Weather in Kontseba

Ukraine / Odesa District     48°06′53″N   29°58′13″E
temp.,
°C
wind,
m/s
gust,
m/s
humid.,
%
clouds,
%
prec.,
mm/h
press.,
hPa
HPBL,
m
11 may, tue
tue1100:00+9ene34650 0.0 102355
03:00+7ne226711 0.0 102216
06:00+7n33725 0.0 102242
09:00+13n576012 0.0 1021444
12:00+17n57549 0.0 1019866
15:00+20n67525 0.0 10171326
18:00+20nne57605 0.0 10161489
21:00+14nne38868 0.1 1016138
12 may, wed
wed1200:00+13ene379375 0.1 1016338
03:00+9ene359753 0.1 1015117
06:00+8ene48930 0.0 1015244
09:00+11ene67694 0.0 1015852
12:00+14ene665562 0.0 10141559
15:00+13ene4556100 0.0 10141616
18:00+13ne3361100 0.1 1013856
21:00+11e2372100 0.1 101366
13 may, thu
thu1300:00+8ese228014 0.0 101219
03:00+7sse22845 0.0 101210
06:00+6sse229297 0.0 101239
09:00+9se3782100 0.1 1012323
12:00+14se6864100 0.0 1011915
15:00+14sse5969100 0.0 1010467
18:00+14se41083100 0.2 1009755
21:00+13sse31086100 0.3 1009317
14 may, fri
fri1400:00+11sse3981100 0.0 1008289
03:00+8sse379029 0.0 1008122
06:00+8sse358999 0.0 1008107
09:00+13s357789 0.0 1008308
12:00+17s577296 0.4 10081009
15:00+18s687169 1.4 1007910
18:00+19ssw4965100 0.3 1007737
21:00+14sw34845 0.3 100862
15 may, sat
sat1500:00+12w35945 0.1 100982
03:00+11wnw33940 0.1 101041
06:00+10nw11915 0.0 101111
09:00+17ese11695 0.0 1012367
12:00+21sse34525 0.0 10121590
15:00+22ssw2445100 0.3 10102064
18:00+20se2364100 0.0 1010179
21:00+15wsw127996 0.3 101119